| time (UTC) | temp F | wind direction | speed MPH | gust MPH | rain 1hr in | rain 24hr in | rain mn in | humidity % | barometer mb |
| 20260905095543 | 63 | 340 | 2.0 | 7.0 | 0.00 | 0.00 | 0.00 | 88 | 1009.5 |
| 20260905095044 | 63 | 25 | 1.0 | 7.0 | 0.00 | 0.00 | 0.00 | 88 | 1009.4 |
| 20260905094536 | 63 | 359 | 2.0 | 5.0 | 0.00 | 0.00 | 0.00 | 89 | 1009.4 |
| 20260905094034 | 63 | 329 | 2.0 | 6.0 | 0.00 | 0.00 | 0.00 | 89 | 1009.3 |
| 20260905093534 | 62 | 32 | 2.0 | 6.0 | 0.00 | 0.00 | 0.00 | 89 | 1009.4 |
| 20260905093044 | 62 | 334 | 3.0 | 6.0 | 0.00 | 0.00 | 0.00 | 89 | 1009.4 |
| 20260905092538 | 62 | 346 | 2.0 | 6.0 | 0.00 | 0.00 | 0.00 | 89 | 1009.4 |
| 20260905092043 | 62 | 338 | 1.0 | 4.0 | 0.00 | 0.00 | 0.00 | 88 | 1009.4 |
| 20260905091537 | 62 | 353 | 1.0 | 4.0 | 0.00 | 0.00 | 0.00 | 88 | 1009.4 |
| 20260905091045 | 62 | 343 | 1.0 | 3.0 | 0.00 | 0.00 | 0.00 | 88 | 1009.4 |
| 20260905090527 | 62 | 343 | 0.0 | 3.0 | 0.00 | 0.00 | 0.00 | 88 | 1009.3 |
| 20260905090047 | 62 | 343 | 1.0 | 3.0 | 0.00 | 0.00 | 0.00 | 88 | 1009.4 |
| 20260905085821 | 63 | 345 | 1.0 | 3.0 | 0.00 | 0.00 | 0.00 | 88 | 1009.4 |
| 20260905085041 | 63 | 345 | 1.0 | 5.0 | 0.00 | 0.00 | 0.00 | 88 | 1009.4 |
| 20260905084520 | 63 | 345 | 1.0 | 5.0 | 0.00 | 0.00 | 0.00 | 88 | 1009.4 |
| 20260905084012 | 63 | 329 | 0.0 | 3.0 | 0.00 | 0.00 | 0.00 | 88 | 1009.4 |
| 20260905083512 | 63 | 348 | 1.0 | 4.0 | 0.00 | 0.00 | 0.00 | 88 | 1009.3 |
| 20260905083010 | 63 | 353 | 2.0 | 5.0 | 0.00 | 0.00 | 0.00 | 88 | 1009.3 |
| 20260905082509 | 63 | 326 | 2.0 | 5.0 | 0.00 | 0.00 | 0.00 | 88 | 1009.3 |
| 20260905082237 | 63 | 348 | 2.0 | 5.0 | 0.00 | 0.00 | 0.00 | 88 | 1009.2 |
| 20260905081508 | 63 | 359 | 1.0 | 4.0 | 0.00 | 0.00 | 0.00 | 88 | 1009.3 |
| 20260905081008 | 63 | 298 | 1.0 | 5.0 | 0.00 | 0.00 | 0.00 | 88 | 1009.3 |
| 20260905080507 | 64 | 307 | 2.0 | 5.0 | 0.00 | 0.00 | 0.00 | 88 | 1009.1 |
| 20260905080006 | 63 | 0 | 2.0 | 5.0 | 0.00 | 0.00 | 0.00 | 88 | 1009.1 |
| 20260905075506 | 63 | 337 | 2.0 | 5.0 | 0.00 | 0.00 | 0.00 | 89 | 1009.2 |
| 20260905075005 | 63 | 334 | 2.0 | 4.0 | 0.00 | 0.00 | 0.00 | 89 | 1009.1 |
| 20260905074504 | 63 | 331 | 2.0 | 5.0 | 0.00 | 0.00 | 0.00 | 89 | 1009.1 |
| 20260905074003 | 63 | 0 | 2.0 | 5.0 | 0.00 | 0.00 | 0.00 | 89 | 1009.2 |
| 20260905073503 | 63 | 311 | 2.0 | 7.0 | 0.00 | 0.00 | 0.00 | 89 | 1009.2 |
| 20260905073003 | 63 | 359 | 0.0 | 7.0 | 0.00 | 0.00 | 0.00 | 89 | 1009.2 |
| 20260905072720 | 63 | 312 | 2.0 | 5.0 | 0.00 | 0.00 | 0.00 | 89 | 1009.3 |
| 20260905072001 | 63 | 298 | 2.0 | 5.0 | 0.00 | 0.00 | 0.00 | 89 | 1009.3 |
| 20260905071500 | 63 | 341 | 2.0 | 5.0 | 0.00 | 0.00 | 0.00 | 89 | 1009.3 |
| 20260905071221 | 63 | 337 | 2.0 | 4.0 | 0.00 | 0.00 | 0.00 | 89 | 1009.4 |
| 20260905070458 | 63 | 352 | 2.0 | 3.0 | 0.00 | 0.00 | 0.00 | 89 | 1009.4 |
| 20260905065958 | 63 | 349 | 2.0 | 3.0 | 0.00 | 0.00 | 0.00 | 89 | 1009.5 |
| 20260905065451 | 63 | 348 | 1.0 | 4.0 | 0.00 | 0.00 | 0.00 | 89 | 1009.6 |
| 20260905064951 | 63 | 313 | 1.0 | 4.0 | 0.00 | 0.00 | 0.00 | 89 | 1009.6 |
| 20260905064451 | 63 | 315 | 1.0 | 4.0 | 0.00 | 0.00 | 0.00 | 89 | 1009.7 |
| 20260905063948 | 63 | 345 | 1.0 | 3.0 | 0.00 | 0.00 | 0.00 | 89 | 1009.8 |
| 20260905063447 | 63 | 328 | 1.0 | 3.0 | 0.00 | 0.00 | 0.00 | 89 | 1009.8 |
| 20260905062945 | 63 | 328 | 0.0 | 3.0 | 0.00 | 0.00 | 0.00 | 89 | 1009.7 |
| 20260905062447 | 63 | 359 | 0.0 | 4.0 | 0.00 | 0.00 | 0.00 | 89 | 1009.7 |
| 20260905061933 | 63 | 349 | 1.0 | 5.0 | 0.00 | 0.00 | 0.00 | 89 | 1009.8 |
| 20260905061424 | 64 | 320 | 2.0 | 5.0 | 0.00 | 0.00 | 0.00 | 89 | 1009.8 |
| 20260905060923 | 64 | 340 | 1.0 | 5.0 | 0.00 | 0.00 | 0.00 | 90 | 1009.7 |
| 20260905060421 | 64 | 323 | 1.0 | 5.0 | 0.00 | 0.00 | 0.00 | 90 | 1009.7 |
| 20260905055920 | 63 | 326 | 2.0 | 5.0 | 0.00 | 0.00 | 0.00 | 90 | 1009.8 |
| 20260905055420 | 63 | 332 | 2.0 | 5.0 | 0.00 | 0.00 | 0.00 | 90 | 1009.8 |
| 20260905054921 | 63 | 304 | 2.0 | 5.0 | 0.00 | 0.00 | 0.00 | 90 | 1009.8 |
| 20260905054419 | 63 | 299 | 2.0 | 5.0 | 0.00 | 0.00 | 0.00 | 90 | 1009.7 |
| 20260905053918 | 63 | 347 | 2.0 | 5.0 | 0.00 | 0.00 | 0.00 | 90 | 1009.8 |
| 20260905053410 | 63 | 328 | 2.0 | 5.0 | 0.00 | 0.00 | 0.00 | 90 | 1009.9 |
| 20260905052912 | 63 | 343 | 3.0 | 6.0 | 0.00 | 0.00 | 0.00 | 91 | 1009.8 |
| 20260905052406 | 63 | 311 | 3.0 | 6.0 | 0.00 | 0.00 | 0.00 | 91 | 1009.7 |
| 20260905051905 | 63 | 342 | 1.0 | 6.0 | 0.00 | 0.00 | 0.00 | 91 | 1009.7 |
| 20260905051404 | 63 | 337 | 1.0 | 6.0 | 0.00 | 0.00 | 0.00 | 91 | 1009.7 |
| 20260905050903 | 63 | 359 | 1.0 | 5.0 | 0.00 | 0.00 | 0.00 | 91 | 1009.7 |
| 20260905050404 | 63 | 317 | 1.0 | 4.0 | 0.00 | 0.00 | 0.00 | 91 | 1009.7 |
| 20260905045902 | 63 | 335 | 0.0 | 4.0 | 0.00 | 0.00 | 0.00 | 91 | 1009.6 |
| 20260905045402 | 63 | 334 | 1.0 | 4.0 | 0.00 | 0.00 | 0.00 | 91 | 1009.5 |
| 20260905044849 | 63 | 333 | 1.0 | 3.0 | 0.00 | 0.00 | 0.00 | 91 | 1009.7 |
| 20260905044347 | 63 | 333 | 0.0 | 3.0 | 0.00 | 0.00 | 0.00 | 91 | 1009.7 |
| 20260905044109 | 63 | 333 | 1.0 | 3.0 | 0.00 | 0.00 | 0.00 | 91 | 1009.7 |
| 20260905042844 | 63 | 333 | 2.0 | 5.0 | 0.00 | 0.00 | 0.00 | 92 | 1009.6 |
| 20260905042346 | 63 | 345 | 2.0 | 5.0 | 0.00 | 0.00 | 0.00 | 92 | 1009.8 |
| 20260905042108 | 63 | 316 | 2.0 | 5.0 | 0.00 | 0.00 | 0.00 | 92 | 1009.7 |
| 20260905041344 | 63 | 329 | 1.0 | 5.0 | 0.00 | 0.00 | 0.00 | 92 | 1009.7 |
| 20260905040842 | 63 | 325 | 2.0 | 5.0 | 0.00 | 0.00 | 0.00 | 92 | 1009.7 |
| 20260905040342 | 63 | 334 | 2.0 | 4.0 | 0.00 | 0.00 | 0.00 | 92 | 1009.8 |
| 20260905035841 | 63 | 339 | 1.0 | 4.0 | 0.00 | 0.00 | 0.00 | 92 | 1009.8 |
| 20260905035340 | 63 | 333 | 1.0 | 5.0 | 0.00 | 0.00 | 0.00 | 92 | 1009.7 |
| 20260905034832 | 63 | 359 | 2.0 | 5.0 | 0.00 | 0.00 | 0.00 | 92 | 1009.8 |
| 20260905034553 | 63 | 338 | 2.0 | 5.0 | 0.00 | 0.00 | 0.00 | 92 | 1009.8 |
| 20260905033829 | 64 | 333 | 2.0 | 5.0 | 0.00 | 0.00 | 0.00 | 92 | 1009.8 |
| 20260905033329 | 64 | 328 | 2.0 | 3.0 | 0.00 | 0.00 | 0.00 | 92 | 1009.8 |
| 20260905032822 | 64 | 316 | 1.0 | 3.0 | 0.00 | 0.00 | 0.00 | 92 | 1009.8 |
| 20260905032322 | 64 | 188 | 0.0 | 2.0 | 0.00 | 0.00 | 0.00 | 92 | 1009.9 |
| 20260905031822 | 64 | 188 | 0.0 | 2.0 | 0.00 | 0.00 | 0.00 | 92 | 1009.9 |
| 20260905031542 | 64 | 188 | 1.0 | 2.0 | 0.00 | 0.00 | 0.00 | 92 | 1009.8 |
| 20260905031309 | 64 | 188 | 0.0 | 1.0 | 0.00 | 0.00 | 0.00 | 92 | 1009.8 |
| 20260905030311 | 64 | 188 | 0.0 | 0.0 | 0.00 | 0.00 | 0.00 | 92 | 1009.8 |
| 20260905030255 | 65 | 188 | 0.0 | 0.0 | 0.00 | 0.00 | 0.00 | 92 | 1009.8 |
| 20260905025311 | 65 | 188 | 0.0 | 0.0 | 0.00 | 0.00 | 0.00 | 92 | 1009.8 |
| 20260905024811 | 65 | 188 | 0.0 | 0.0 | 0.00 | 0.00 | 0.00 | 92 | 1009.8 |
| 20260905024310 | 65 | 188 | 0.0 | 1.0 | 0.00 | 0.00 | 0.00 | 92 | 1009.8 |
| 20260905024025 | 65 | 188 | 0.0 | 1.0 | 0.00 | 0.00 | 0.00 | 92 | 1009.8 |
| 20260905023256 | 65 | 188 | 0.0 | 1.0 | 0.00 | 0.00 | 0.00 | 92 | 1009.9 |
| 20260905022748 | 66 | 188 | 0.0 | 1.0 | 0.00 | 0.00 | 0.00 | 92 | 1009.8 |
| 20260905022248 | 66 | 188 | 0.0 | 0.0 | 0.00 | 0.00 | 0.00 | 92 | 1009.8 |
| 20260905021747 | 66 | 188 | 0.0 | 1.0 | 0.00 | 0.00 | 0.00 | 92 | 1009.9 |
| 20260905021245 | 67 | 188 | 0.0 | 1.0 | 0.00 | 0.00 | 0.00 | 92 | 1009.9 |
| 20260905021008 | 67 | 188 | 0.0 | 1.0 | 0.00 | 0.00 | 0.00 | 92 | 1009.9 |
| 20260905020245 | 67 | 188 | 0.0 | 1.0 | 0.00 | 0.00 | 0.00 | 92 | 1010.0 |
| 20260905015744 | 67 | 188 | 0.0 | 1.0 | 0.00 | 0.00 | 0.00 | 92 | 1010.1 |
| 20260905015242 | 67 | 188 | 0.0 | 0.0 | 0.00 | 0.00 | 0.00 | 92 | 1010.2 |
| 20260905014740 | 67 | 188 | 0.0 | 0.0 | 0.00 | 0.00 | 0.00 | 92 | 1010.3 |
| 20260905014242 | 67 | 188 | 0.0 | 0.0 | 0.00 | 0.00 | 0.00 | 92 | 1010.3 |
| 20260905013956 | 67 | 188 | 0.0 | 0.0 | 0.00 | 0.00 | 0.00 | 92 | 1010.3 |
| 20260905013240 | 68 | 188 | 0.0 | 0.0 | 0.00 | 0.00 | 0.00 | 92 | 1010.3 |
| 20260905012739 | 68 | 188 | 0.0 | 0.0 | 0.00 | 0.00 | 0.00 | 92 | 1010.4 |
| 20260905012507 | 68 | 188 | 0.0 | 0.0 | 0.00 | 0.00 | 0.00 | 92 | 1010.4 |
| 20260905012000 | 68 | 188 | 0.0 | 1.0 | 0.00 | 0.00 | 0.00 | 92 | 1010.4 |
| 20260905011230 | 68 | 188 | 0.0 | 1.0 | 0.00 | 0.00 | 0.00 | 92 | 1010.5 |
| 20260905010722 | 68 | 188 | 0.0 | 2.0 | 0.00 | 0.00 | 0.00 | 92 | 1010.5 |
| 20260905010213 | 68 | 188 | 1.0 | 2.0 | 0.00 | 0.00 | 0.00 | 92 | 1010.4 |
| 20260905005713 | 68 | 184 | 0.0 | 1.0 | 0.00 | 0.00 | 0.00 | 92 | 1010.4 |
| 20260905005211 | 68 | 184 | 0.0 | 1.0 | 0.00 | 0.00 | 0.00 | 92 | 1010.4 |
| 20260905004709 | 68 | 184 | 0.0 | 1.0 | 0.00 | 0.00 | 0.00 | 92 | 1010.4 |
| 20260905004211 | 68 | 184 | 0.0 | 1.0 | 0.00 | 0.00 | 0.00 | 92 | 1010.4 |
| 20260905003707 | 68 | 184 | 0.0 | 0.0 | 0.00 | 0.00 | 0.00 | 91 | 1010.2 |
| 20260905003208 | 68 | 184 | 0.0 | 0.0 | 0.00 | 0.00 | 0.00 | 91 | 1010.3 |
| 20260905002701 | 67 | 184 | 0.0 | 0.0 | 0.00 | 0.00 | 0.00 | 91 | 1010.4 |
| 20260905002159 | 67 | 184 | 0.0 | 0.0 | 0.00 | 0.00 | 0.00 | 91 | 1010.3 |
| 20260905001657 | 67 | 184 | 0.0 | 0.0 | 0.00 | 0.00 | 0.00 | 91 | 1010.2 |
| 20260905001423 | 67 | 184 | 0.0 | 1.0 | 0.00 | 0.00 | 0.00 | 91 | 1010.2 |
| 20260905000650 | 67 | 184 | 0.0 | 1.0 | 0.00 | 0.00 | 0.00 | 91 | 1010.2 |
| 20260905000149 | 67 | 184 | 0.0 | 1.0 | 0.00 | 0.00 | 0.00 | 91 | 1010.2 |
| 20260904235644 | 67 | 184 | 0.0 | 1.0 | 0.00 | 0.00 | 0.00 | 90 | 1010.1 |
| 20260904235352 | 67 | 184 | 0.0 | 0.0 | 0.00 | 0.00 | 0.00 | 90 | 1010.0 |
| 20260904234859 | 67 | 184 | 0.0 | 0.0 | 0.00 | 0.00 | 0.00 | 90 | 1009.9 |
| 20260904234126 | 68 | 184 | 0.0 | 0.0 | 0.00 | 0.00 | 0.00 | 90 | 1009.9 |
| 20260904233625 | 68 | 184 | 0.0 | 0.0 | 0.00 | 0.00 | 0.00 | 90 | 1009.8 |
| 20260904233109 | 68 | 184 | 0.0 | 2.0 | 0.00 | 0.00 | 0.00 | 90 | 1009.8 |
| 20260904233055 | 68 | 184 | 0.0 | 2.0 | 0.00 | 0.00 | 0.00 | 90 | 1009.7 |
| 20260904232108 | 68 | 184 | 0.0 | 0.0 | 0.00 | 0.00 | 0.00 | 90 | 1009.8 |
| 20260904231549 | 68 | 184 | 0.0 | 0.0 | 0.00 | 0.00 | 0.00 | 90 | 1009.8 |
| 20260904231049 | 69 | 184 | 0.0 | 0.0 | 0.00 | 0.00 | 0.00 | 89 | 1009.7 |
| 20260904230549 | 69 | 184 | 0.0 | 2.0 | 0.00 | 0.00 | 0.00 | 89 | 1009.8 |
| 20260904230039 | 69 | 184 | 0.0 | 2.0 | 0.00 | 0.00 | 0.00 | 90 | 1009.7 |
| 20260904225542 | 69 | 184 | 0.0 | 1.0 | 0.00 | 0.00 | 0.00 | 89 | 1009.7 |
| 20260904225039 | 69 | 184 | 0.0 | 2.0 | 0.00 | 0.00 | 0.00 | 89 | 1009.8 |
| 20260904224532 | 69 | 184 | 0.0 | 2.0 | 0.00 | 0.00 | 0.00 | 89 | 1009.9 |
| 20260904224024 | 69 | 184 | 1.0 | 4.0 | 0.00 | 0.00 | 0.00 | 89 | 1009.8 |
| 20260904223522 | 69 | 184 | 2.0 | 4.0 | 0.00 | 0.00 | 0.00 | 89 | 1009.8 |
| 20260904223013 | 70 | 181 | 1.0 | 3.0 | 0.00 | 0.00 | 0.00 | 89 | 1009.7 |
| 20260904222514 | 70 | 181 | 1.0 | 3.0 | 0.00 | 0.00 | 0.00 | 89 | 1009.7 |
| 20260904222011 | 70 | 181 | 0.0 | 3.0 | 0.00 | 0.00 | 0.00 | 89 | 1009.7 |
| 20260904221512 | 70 | 181 | 0.0 | 3.0 | 0.00 | 0.00 | 0.00 | 89 | 1009.6 |
| 20260904221008 | 70 | 187 | 1.0 | 3.0 | 0.00 | 0.00 | 0.00 | 89 | 1009.5 |
| 20260904220508 | 70 | 186 | 1.0 | 5.0 | 0.00 | 0.00 | 0.00 | 89 | 1009.5 |
| 20260904220006 | 70 | 186 | 4.0 | 5.0 | 0.00 | 0.00 | 0.00 | 89 | 1009.5 |
| 20260904215505 | 70 | 193 | 1.0 | 5.0 | 0.00 | 0.00 | 0.00 | 89 | 1009.5 |
| 20260904214943 | 70 | 178 | 0.0 | 3.0 | 0.00 | 0.00 | 0.00 | 89 | 1009.4 |
| 20260904214705 | 70 | 176 | 0.0 | 4.0 | 0.00 | 0.00 | 0.00 | 88 | 1009.5 |
| 20260904213933 | 70 | 176 | 2.0 | 4.0 | 0.00 | 0.00 | 0.00 | 88 | 1009.4 |
| 20260904213431 | 70 | 169 | 0.0 | 4.0 | 0.00 | 0.00 | 0.00 | 88 | 1009.4 |
| 20260904212930 | 70 | 160 | 0.0 | 4.0 | 0.00 | 0.00 | 0.00 | 88 | 1009.5 |
| 20260904212429 | 70 | 192 | 1.0 | 4.0 | 0.00 | 0.00 | 0.00 | 88 | 1009.4 |
| 20260904212149 | 71 | 202 | 0.0 | 4.0 | 0.00 | 0.00 | 0.00 | 87 | 1009.4 |
| 20260904211420 | 71 | 141 | 2.0 | 4.0 | 0.00 | 0.00 | 0.00 | 87 | 1009.4 |
| 20260904210918 | 71 | 195 | 2.0 | 4.0 | 0.00 | 0.00 | 0.00 | 87 | 1009.4 |
| 20260904210418 | 71 | 154 | 1.0 | 3.0 | 0.00 | 0.00 | 0.00 | 87 | 1009.5 |
| 20260904205908 | 71 | 156 | 1.0 | 3.0 | 0.00 | 0.00 | 0.00 | 87 | 1009.5 |
| 20260904205408 | 71 | 172 | 1.0 | 3.0 | 0.00 | 0.00 | 0.00 | 87 | 1009.4 |
| 20260904204907 | 71 | 148 | 1.0 | 4.0 | 0.00 | 0.00 | 0.00 | 87 | 1009.5 |
| 20260904204406 | 71 | 176 | 1.0 | 4.0 | 0.00 | 0.00 | 0.00 | 87 | 1009.4 |
| 20260904203907 | 71 | 155 | 1.0 | 4.0 | 0.00 | 0.00 | 0.00 | 87 | 1009.5 |
| 20260904203404 | 71 | 179 | 2.0 | 4.0 | 0.00 | 0.00 | 0.00 | 87 | 1009.4 |
| 20260904202904 | 71 | 140 | 0.0 | 5.0 | 0.00 | 0.00 | 0.00 | 87 | 1009.4 |
| 20260904202402 | 71 | 181 | 1.0 | 5.0 | 0.00 | 0.00 | 0.00 | 87 | 1009.6 |
| 20260904201902 | 71 | 141 | 0.0 | 3.0 | 0.00 | 0.00 | 0.00 | 87 | 1009.5 |
| 20260904201611 | 71 | 139 | 1.0 | 5.0 | 0.00 | 0.00 | 0.00 | 88 | 1009.5 |
| 20260904201455 | 71 | 141 | 2.0 | 5.0 | 0.00 | 0.00 | 0.00 | 87 | 1009.5 |
| 20260904200358 | 70 | 191 | 1.0 | 4.0 | 0.00 | 0.00 | 0.00 | 88 | 1009.4 |
| 20260904195857 | 70 | 98 | 1.0 | 3.0 | 0.00 | 0.00 | 0.00 | 88 | 1009.4 |
| 20260904195618 | 70 | 115 | 0.0 | 5.0 | 0.00 | 0.00 | 0.00 | 87 | 1009.4 |
| 20260904194849 | 70 | 193 | 2.0 | 5.0 | 0.00 | 0.00 | 0.00 | 87 | 1009.5 |
| 20260904194348 | 71 | 180 | 1.0 | 4.0 | 0.00 | 0.00 | 0.00 | 87 | 1009.4 |
| 20260904194117 | 71 | 125 | 2.0 | 4.0 | 0.00 | 0.00 | 0.00 | 87 | 1009.4 |
| 20260904193347 | 71 | 138 | 2.0 | 4.0 | 0.00 | 0.00 | 0.00 | 87 | 1009.4 |
| 20260904192846 | 71 | 188 | 1.0 | 3.0 | 0.00 | 0.00 | 0.00 | 87 | 1009.4 |
| 20260904192343 | 71 | 170 | 1.0 | 4.0 | 0.00 | 0.00 | 0.00 | 87 | 1009.4 |
| 20260904191842 | 71 | 210 | 1.0 | 4.0 | 0.00 | 0.00 | 0.00 | 87 | 1009.4 |
| 20260904191342 | 71 | 227 | 2.0 | 4.0 | 0.00 | 0.00 | 0.00 | 87 | 1009.5 |
| 20260904190842 | 71 | 211 | 2.0 | 3.0 | 0.00 | 0.00 | 0.00 | 87 | 1009.6 |
| 20260904190340 | 71 | 142 | 2.0 | 3.0 | 0.00 | 0.00 | 0.00 | 87 | 1009.6 |
| 20260904185839 | 71 | 143 | 1.0 | 3.0 | 0.00 | 0.00 | 0.00 | 87 | 1009.7 |
| 20260904185339 | 71 | 143 | 1.0 | 3.0 | 0.00 | 0.00 | 0.00 | 87 | 1009.6 |
| 20260904184838 | 71 | 188 | 0.0 | 3.0 | 0.00 | 0.00 | 0.00 | 87 | 1009.6 |
| 20260904184336 | 71 | 207 | 1.0 | 3.0 | 0.00 | 0.00 | 0.00 | 87 | 1009.7 |
| 20260904183837 | 71 | 180 | 1.0 | 6.0 | 0.00 | 0.00 | 0.00 | 87 | 1009.7 |
| 20260904183336 | 71 | 136 | 1.0 | 6.0 | 0.00 | 0.00 | 0.00 | 87 | 1009.8 |
| 20260904182834 | 71 | 87 | 2.0 | 4.0 | 0.00 | 0.00 | 0.00 | 86 | 1009.8 |
| 20260904182326 | 71 | 138 | 2.0 | 3.0 | 0.00 | 0.00 | 0.00 | 87 | 1009.9 |
| 20260904181824 | 71 | 153 | 0.0 | 5.0 | 0.00 | 0.00 | 0.00 | 87 | 1010.0 |
| 20260904181323 | 71 | 161 | 2.0 | 5.0 | 0.00 | 0.00 | 0.00 | 87 | 1009.9 |
| 20260904181043 | 71 | 202 | 0.0 | 5.0 | 0.00 | 0.00 | 0.00 | 87 | 1010.0 |
| 20260904180321 | 71 | 193 | 2.0 | 5.0 | 0.00 | 0.00 | 0.00 | 87 | 1009.9 |
| 20260904175825 | 71 | 174 | 1.0 | 5.0 | 0.00 | 0.00 | 0.00 | 87 | 1010.0 |
| 20260904175319 | 70 | 191 | 1.0 | 5.0 | 0.00 | 0.00 | 0.00 | 88 | 1009.9 |
| 20260904175037 | 70 | 150 | 1.0 | 7.0 | 0.00 | 0.00 | 0.00 | 88 | 1009.9 |
| 20260904174311 | 70 | 117 | 2.0 | 7.0 | 0.00 | 0.00 | 0.00 | 88 | 1010.0 |
| 20260904174043 | 70 | 209 | 2.0 | 4.0 | 0.00 | 0.00 | 0.00 | 88 | 1009.9 |
| 20260904173311 | 70 | 175 | 1.0 | 4.0 | 0.00 | 0.00 | 0.00 | 87 | 1010.0 |
| 20260904173031 | 70 | 168 | 2.0 | 6.0 | 0.00 | 0.00 | 0.00 | 87 | 1010.1 |
| 20260904172307 | 70 | 165 | 2.0 | 6.0 | 0.00 | 0.00 | 0.00 | 87 | 1010.2 |
| 20260904171808 | 70 | 172 | 0.0 | 4.0 | 0.00 | 0.00 | 0.00 | 87 | 1010.1 |
| 20260904171309 | 70 | 255 | 1.0 | 4.0 | 0.00 | 0.00 | 0.00 | 87 | 1010.1 |
| 20260904171032 | 70 | 168 | 1.0 | 3.0 | 0.00 | 0.00 | 0.00 | 87 | 1010.1 |
| 20260904170301 | 70 | 155 | 1.0 | 2.0 | 0.00 | 0.00 | 0.00 | 87 | 1010.1 |
| 20260904165758 | 70 | 165 | 1.0 | 3.0 | 0.00 | 0.00 | 0.00 | 87 | 1010.2 |
| 20260904165257 | 70 | 180 | 1.0 | 3.0 | 0.00 | 0.00 | 0.00 | 87 | 1010.2 |
| 20260904164757 | 70 | 84 | 1.0 | 4.0 | 0.00 | 0.00 | 0.00 | 88 | 1010.3 |
| 20260904164256 | 70 | 167 | 1.0 | 4.0 | 0.00 | 0.00 | 0.00 | 88 | 1010.3 |
| 20260904163755 | 70 | 49 | 1.0 | 3.0 | 0.00 | 0.00 | 0.00 | 88 | 1010.4 |
| 20260904163256 | 70 | 359 | 2.0 | 3.0 | 0.00 | 0.00 | 0.00 | 88 | 1010.4 |
| 20260904162755 | 70 | 119 | 1.0 | 5.0 | 0.00 | 0.00 | 0.00 | 88 | 1010.4 |
| 20260904162247 | 70 | 37 | 2.0 | 5.0 | 0.00 | 0.00 | 0.00 | 88 | 1010.4 |
| 20260904161746 | 70 | 56 | 1.0 | 4.0 | 0.00 | 0.00 | 0.00 | 89 | 1010.5 |
| 20260904161245 | 70 | 51 | 1.0 | 3.0 | 0.00 | 0.00 | 0.00 | 89 | 1010.6 |
| 20260904160744 | 70 | 51 | 1.0 | 4.0 | 0.00 | 0.00 | 0.00 | 89 | 1010.6 |
| 20260904160242 | 70 | 51 | 1.0 | 7.0 | 0.00 | 0.00 | 0.00 | 90 | 1010.6 |
| 20260904155742 | 69 | 61 | 4.0 | 9.0 | 0.00 | 0.00 | 0.00 | 89 | 1010.6 |
| 20260904155240 | 70 | 50 | 4.0 | 9.0 | 0.00 | 0.00 | 0.00 | 90 | 1010.6 |
| 20260904154739 | 70 | 51 | 2.0 | 6.0 | 0.00 | 0.00 | 0.00 | 91 | 1010.6 |
| 20260904154238 | 70 | 58 | 3.0 | 6.0 | 0.00 | 0.00 | 0.00 | 91 | 1010.7 |
| 20260904154002 | 70 | 49 | 4.0 | 6.0 | 0.00 | 0.00 | 0.00 | 91 | 1010.8 |
| 20260904153503 | 69 | 44 | 0.0 | 4.0 | 0.00 | 0.00 | 0.00 | 92 | 1010.8 |
| 20260904152736 | 70 | 44 | 1.0 | 5.0 | 0.00 | 0.00 | 0.00 | 92 | 1010.6 |
| 20260904152236 | 69 | 58 | 1.0 | 5.0 | 0.00 | 0.00 | 0.00 | 92 | 1010.6 |
| 20260904151736 | 69 | 61 | 3.0 | 5.0 | 0.00 | 0.00 | 0.00 | 93 | 1010.7 |
| 20260904151233 | 69 | 56 | 2.0 | 6.0 | 0.00 | 0.00 | 0.00 | 93 | 1010.8 |
| 20260904150732 | 69 | 13 | 3.0 | 6.0 | 0.00 | 0.00 | 0.00 | 93 | 1010.8 |
| 20260904150231 | 69 | 56 | 3.0 | 6.0 | 0.00 | 0.01 | 0.00 | 93 | 1011.0 |
| 20260904145732 | 69 | 49 | 2.0 | 6.0 | 0.00 | 0.01 | 0.00 | 94 | 1010.9 |
| 20260904145232 | 69 | 57 | 3.0 | 8.0 | 0.00 | 0.01 | 0.00 | 94 | 1011.0 |
| 20260904144730 | 68 | 65 | 3.0 | 8.0 | 0.00 | 0.01 | 0.00 | 94 | 1011.1 |
| 20260904144229 | 68 | 64 | 2.0 | 6.0 | 0.00 | 0.01 | 0.00 | 94 | 1011.1 |
| 20260904143721 | 68 | 72 | 2.0 | 7.0 | 0.00 | 0.01 | 0.00 | 94 | 1011.1 |
| 20260904143443 | 67 | 55 | 2.0 | 7.0 | 0.00 | 0.01 | 0.00 | 94 | 1011.1 |
| 20260904142721 | 67 | 61 | 2.0 | 4.0 | 0.00 | 0.01 | 0.00 | 94 | 1011.2 |
| 20260904142220 | 67 | 63 | 3.0 | 4.0 | 0.00 | 0.01 | 0.00 | 94 | 1011.2 |
| 20260904141718 | 68 | 65 | 2.0 | 6.0 | 0.00 | 0.01 | 0.00 | 94 | 1011.1 |
| 20260904141219 | 68 | 57 | 2.0 | 6.0 | 0.00 | 0.01 | 0.00 | 94 | 1011.1 |
| 20260904140716 | 68 | 65 | 2.0 | 4.0 | 0.00 | 0.01 | 0.00 | 94 | 1011.1 |
| 20260904140441 | 68 | 8 | 2.0 | 4.0 | 0.00 | 0.01 | 0.00 | 95 | 1011.0 |
| 20260904135715 | 67 | 25 | 1.0 | 3.0 | 0.00 | 0.01 | 0.00 | 94 | 1011.1 |
| 20260904135214 | 67 | 67 | 1.0 | 6.0 | 0.00 | 0.01 | 0.00 | 95 | 1011.1 |
| 20260904134715 | 67 | 65 | 2.0 | 6.0 | 0.00 | 0.01 | 0.00 | 94 | 1011.2 |
| 20260904134451 | 67 | 49 | 2.0 | 6.0 | 0.00 | 0.01 | 0.00 | 94 | 1011.2 |
| 20260904134158 | 67 | 43 | 3.0 | 6.0 | 0.00 | 0.01 | 0.00 | 94 | 1011.2 |
| 20260904133207 | 67 | 84 | 2.0 | 6.0 | 0.00 | 0.01 | 0.00 | 94 | 1011.1 |
| 20260904132704 | 66 | 58 | 1.0 | 4.0 | 0.00 | 0.01 | 0.00 | 94 | 1011.1 |
| 20260904132203 | 66 | 51 | 2.0 | 4.0 | 0.00 | 0.01 | 0.00 | 95 | 1011.2 |
| 20260904131703 | 66 | 63 | 1.0 | 5.0 | 0.00 | 0.02 | 0.00 | 95 | 1011.3 |
| 20260904131203 | 66 | 49 | 3.0 | 5.0 | 0.00 | 0.02 | 0.00 | 95 | 1011.3 |
| 20260904130702 | 66 | 63 | 2.0 | 5.0 | 0.00 | 0.03 | 0.00 | 95 | 1011.3 |
| 20260904130201 | 66 | 70 | 3.0 | 5.0 | 0.00 | 0.03 | 0.00 | 95 | 1011.4 |
| 20260904125700 | 66 | 27 | 2.0 | 5.0 | 0.00 | 0.03 | 0.00 | 95 | 1011.4 |
| 20260904125153 | 66 | 65 | 2.0 | 5.0 | 0.00 | 0.03 | 0.00 | 95 | 1011.4 |
| 20260904124913 | 66 | 57 | 2.0 | 5.0 | 0.00 | 0.04 | 0.00 | 95 | 1011.3 |
| 20260904124151 | 66 | 70 | 2.0 | 5.0 | 0.00 | 0.04 | 0.00 | 94 | 1011.3 |
| 20260904123648 | 66 | 69 | 3.0 | 5.0 | 0.00 | 0.04 | 0.00 | 94 | 1011.3 |
| 20260904123148 | 66 | 45 | 2.0 | 5.0 | 0.00 | 0.04 | 0.00 | 94 | 1011.3 |
| 20260904122647 | 66 | 63 | 2.0 | 4.0 | 0.00 | 0.04 | 0.00 | 95 | 1011.3 |
| 20260904122148 | 66 | 53 | 2.0 | 3.0 | 0.00 | 0.04 | 0.00 | 94 | 1011.3 |
| 20260904121639 | 66 | 50 | 2.0 | 4.0 | 0.00 | 0.04 | 0.00 | 94 | 1011.3 |
| 20260904121137 | 66 | 53 | 2.0 | 4.0 | 0.00 | 0.04 | 0.00 | 94 | 1011.3 |
| 20260904120906 | 66 | 53 | 2.0 | 4.0 | 0.00 | 0.05 | 0.00 | 94 | 1011.3 |
| 20260904120138 | 66 | 53 | 0.0 | 4.0 | 0.00 | 0.05 | 0.00 | 94 | 1011.3 |
| 20260904115859 | 67 | 53 | 2.0 | 4.0 | 0.00 | 0.05 | 0.00 | 94 | 1011.3 |
| 20260904115134 | 67 | 40 | 1.0 | 3.0 | 0.00 | 0.05 | 0.00 | 94 | 1011.2 |
| 20260904114900 | 67 | 40 | 0.0 | 4.0 | 0.00 | 0.05 | 0.00 | 94 | 1011.3 |
| 20260904114136 | 67 | 40 | 2.0 | 4.0 | 0.00 | 0.06 | 0.00 | 94 | 1011.2 |
| 20260904113628 | 67 | 0 | 1.0 | 2.0 | 0.00 | 0.06 | 0.00 | 94 | 1011.3 |
| 20260904113127 | 67 | 0 | 0.0 | 0.0 | 0.00 | 0.06 | 0.00 | 94 | 1011.2 |
| 20260904112626 | 67 | 0 | 0.0 | 0.0 | 0.00 | 0.06 | 0.00 | 94 | 1011.1 |
| 20260904112125 | 67 | 0 | 0.0 | 0.0 | 0.00 | 0.06 | 0.00 | 94 | 1011.1 |
| 20260904111625 | 67 | 0 | 0.0 | 0.0 | 0.00 | 0.06 | 0.00 | 95 | 1011.0 |
| 20260904111124 | 67 | 0 | 0.0 | 0.0 | 0.00 | 0.06 | 0.00 | 94 | 1011.0 |
| 20260904110624 | 67 | 0 | 0.0 | 0.0 | 0.00 | 0.06 | 0.00 | 94 | 1011.0 |
| 20260904110122 | 67 | 0 | 0.0 | 0.0 | 0.00 | 0.06 | 0.00 | 94 | 1011.1 |
| 20260904105622 | 67 | 0 | 0.0 | 0.0 | 0.00 | 0.06 | 0.00 | 94 | 1011.0 |
| 20260904105121 | 67 | 0 | 0.0 | 2.0 | 0.00 | 0.07 | 0.00 | 94 | 1011.1 |
| 20260904104621 | 67 | 0 | 0.0 | 2.0 | 0.00 | 0.07 | 0.00 | 94 | 1010.9 |
| 20260904104120 | 67 | 0 | 0.0 | 2.0 | 0.00 | 0.07 | 0.00 | 94 | 1010.9 |
| 20260904103620 | 67 | 0 | 0.0 | 1.0 | 0.00 | 0.08 | 0.00 | 94 | 1010.9 |
| 20260904103120 | 67 | 183 | 0.0 | 0.0 | 0.00 | 0.08 | 0.00 | 94 | 1010.9 |
| 20260904102619 | 67 | 183 | 0.0 | 0.0 | 0.00 | 0.08 | 0.00 | 94 | 1010.8 |
| 20260904102119 | 67 | 183 | 0.0 | 0.0 | 0.00 | 0.08 | 0.00 | 94 | 1010.8 |
| 20260904101618 | 67 | 183 | 0.0 | 0.0 | 0.00 | 0.08 | 0.00 | 94 | 1010.8 |
| 20260904101118 | 67 | 183 | 0.0 | 0.0 | 0.00 | 0.08 | 0.00 | 94 | 1010.7 |
| 20260904100615 | 67 | 183 | 0.0 | 0.0 | 0.00 | 0.08 | 0.00 | 94 | 1010.7 |
| 20260904100118 | 67 | 183 | 0.0 | 0.0 | 0.00 | 0.08 | 0.00 | 94 | 1010.8 |